Location: Culleoka
(33.1312°N, 96.4919°W)
Time: 20:49:40
(UTC+00:00)

Cosmos 1500 Rocket - Pass Details

Date: 05 July 2022
Orbit: 602 x 631 km, 82.5° (Epoch: 13 August)

Event Time Altitude Azimuth Distance (km) Brightness Sun altitude
Exits shadow 08:27:38 23° 104° (ESE) 1,339 5.4 -27.5°
Maximum altitude 08:28:21 24° 89° (E) 1,304 5.5 -27.4°
Drops below altitude 10° 08:31:56 10° 36° (NE) 2,011 7.2 -27.1°
Sets 08:34:30 0° 22° (NNE) 2,925 8.3 -26.8°
